星链-5166 (STARLINK-5166 )

导读

STARLINK-5166是美国SpaceX公司星链(Starlink)星座中的一颗低轨互联网卫星,于2022年10月20日由猎鹰9号火箭发射升空。作为星链项目的一员,它运行在近地轨道,为全球提供高速低延迟互联网接入服务,尤其助力偏远地区实现网络覆盖。星链计划预计将部署数万颗卫星,STARLINK-5166的成功发射进一步扩大了星座规模,推动全球互联网络的构建。

基本信息
目录编号:
54085
目录名称:
STARLINK-5166
国际标识:
2022-136AL
轨道中心:
EARTH
卫星名称:
星链-5166
卫星全名:
星链-5166 (STARLINK-5166 )
卫星状态:
在轨 (已飞行1423 天)
发射日期:
2022-10-20 UTC
国别 :
美国 (US)
星等 :
--
该卫星已列入 空间交会检测服务 Space Conjunction Data Service (SCDS) ,当前飞行风险评估等级: 无高风险
轨道信息
数据来源 国际轨道数据
星历时间: 2026-09-12T12:00:02+0800
7小时前
查看轨道信息
半长轴: 6873.126km
偏心率: 0.0000439
轨道倾角: 53.162°
近地点辐角 113.566°
升交点赤经 215.900°
平近点角 211.913°
近地点: 494.687km
远地点: 495.291km
周期: 94.513分钟
每日圈数: 15.236013
详细信息
固有亮度:
5
最大亮度:
2.5
卫星平台:
Starlink v1.5
覆盖范围:
全球
运营商:
太空探索技术公司
运营商所在国:
美国
制造商(研发单位):
太空探索技术公司
制造商所在国:
美国
使用方式:
暂无
卫星简介
星链(Starlink)计划是由太空探索技术公司(SpaceX)提出的一个巨型低轨卫星互联网星座项目,计划在2019年至2024年间在太空搭建由约1.2万颗卫星组成的“星链”网络,其中1584颗将部署在地球上空550千米处的近地轨道,并从2020年开始工作。该卫星仍在工作。
2D轨道图
3D轨道图
轨道高度分析图
轨道倾角分析图
轨道综合分析图
查看轨道综合分析图
交会数据列表
事件ID 空间交会对象 最接近时刻(TCA) 交会距离 交会风险概率(CRP) 交会风险指数(CRI) 操作
CDM_260912-201605-408506-767821
2026-09-12T
20:16:36+0000
2.371 km
极远距离
1.664536E-6 低风险 0.39
与全量物体交会距离演化趋势
与全量物体交会风险概率演化趋势